Time,TemperatureF,DewpointF,PressureIn,WindDirection,WindDirectionDegrees,WindSpeedMPH,WindSpeedGustMPH,Humidity,HourlyPrecipIn,Conditions,Clouds,dailyrainin,SoftwareType,DateUTC
2013-09-17 00:00:00,48.4,27.5,30.38,SSE,150,0.0,0.0,44,0.00,NA,NA,-99.99,VWS Version 10.38,2013-09-17 04:00:00,
2013-09-17 00:05:00,48.2,27.9,30.38,SW,222,2.7,2.7,45,0.00,NA,NA,-99.99,VWS Version 10.38,2013-09-17 04:05:00,
2013-09-17 00:10:00,48.0,28.2,30.41,SSW,192,2.7,2.7,46,0.00,NA,NA,-99.99,VWS Version 10.38,2013-09-17 04:10:00,
2013-09-17 00:15:00,47.8,28.1,30.41,WNW,299,0.0,0.0,46,0.00,NA,NA,-99.99,VWS Version 10.38,2013-09-17 04:15:00,
2013-09-17 00:20:00,47.7,28.4,30.41,SW,225,6.3,6.3,47,0.00,NA,NA,-99.99,VWS Version 10.38,2013-09-17 04:20:00,
2013-09-17 00:25:00,47.5,28.3,30.41,SSW,199,0.0,0.0,47,0.00,NA,NA,-99.99,VWS Version 10.38,2013-09-17 04:25:00,
2013-09-17 00:30:00,47.3,28.1,30.41,WSW,252,4.0,4.0,47,0.00,NA,NA,-99.99,VWS Version 10.38,2013-09-17 04:30:00,
2013-09-17 00:35:00,47.1,27.9,30.41,East,84,2.7,2.7,47,0.00,NA,NA,-99.99,VWS Version 10.38,2013-09-17 04:35:00,
2013-09-17 00:40:00,46.9,28.3,30.41,SSW,198,0.0,0.0,48,0.00,NA,NA,-99.99,VWS Version 10.38,2013-09-17 04:40:00,
2013-09-17 00:45:00,46.8,28.1,30.41,SW,219,0.0,0.0,48,0.00,NA,NA,-99.99,VWS Version 10.38,2013-09-17 04:45:00,
2013-09-17 00:50:00,46.6,28.0,30.41,West,261,0.0,0.0,48,0.00,NA,NA,-99.99,VWS Version 10.38,2013-09-17 04:50:00,
2013-09-17 00:55:00,46.4,27.8,30.41,SE,146,3.1,3.1,48,0.00,NA,NA,-99.99,VWS Version 10.38,2013-09-17 04:55:00,
2013-09-17 01:00:00,46.2,28.1,30.41,SE,139,0.0,0.0,49,0.00,NA,NA,-99.99,VWS Version 10.38,2013-09-17 05:00:00,
2013-09-17 01:05:00,46.0,28.0,30.41,WSW,245,3.1,3.1,49,0.00,NA,NA,-99.99,VWS Version 10.38,2013-09-17 05:05:00,
2013-09-17 01:10:00,45.9,27.8,30.41,ENE,73,0.0,0.0,49,0.00,NA,NA,-99.99,VWS Version 10.38,2013-09-17 05:10:00,
2013-09-17 01:15:00,45.9,27.8,30.41,East,101,0.0,0.0,49,0.00,NA,NA,-99.99,VWS Version 10.38,2013-09-17 05:15:00,
2013-09-17 01:20:00,45.5,28.0,30.41,WNW,282,0.0,0.0,50,0.00,NA,NA,-99.99,VWS Version 10.38,2013-09-17 05:20:00,
2013-09-17 01:25:00,45.5,28.0,30.41,SW,216,0.0,0.0,50,0.00,NA,NA,-99.99,VWS Version 10.38,2013-09-17 05:25:00,
2013-09-17 01:30:00,45.3,27.8,30.41,WSW,237,0.0,0.0,50,0.00,NA,NA,-99.99,VWS Version 10.38,2013-09-17 05:30:00,
2013-09-17 01:35:00,45.3,27.8,30.41,West,273,2.2,2.2,50,0.00,NA,NA,-99.99,VWS Version 10.38,2013-09-17 05:35:00,
2013-09-17 01:40:00,45.1,28.1,30.41,SSW,203,3.6,3.6,51,0.00,NA,NA,-99.99,VWS Version 10.38,2013-09-17 05:40:00,
2013-09-17 01:45:00,45.1,28.1,30.41,SW,224,0.0,0.0,51,0.00,NA,NA,-99.99,VWS Version 10.38,2013-09-17 05:45:00,
2013-09-17 01:50:00,45.0,27.9,30.41,South,188,0.0,0.0,51,0.00,NA,NA,-99.99,VWS Version 10.38,2013-09-17 05:50:00,
2013-09-17 01:55:00,44.8,28.2,30.44,SW,221,0.0,0.0,52,0.00,NA,NA,-99.99,VWS Version 10.38,2013-09-17 05:55:00,
2013-09-17 02:00:00,44.6,28.1,30.44,West,266,3.1,3.1,52,0.00,NA,NA,-99.99,VWS Version 10.38,2013-09-17 06:00:00,
2013-09-17 02:05:00,44.4,28.4,30.44,South,181,0.0,0.0,53,0.00,NA,NA,-99.99,VWS Version 10.38,2013-09-17 06:05:00,
2013-09-17 02:10:00,44.2,28.2,30.44,South,175,0.0,0.0,53,0.00,NA,NA,-99.99,VWS Version 10.38,2013-09-17 06:10:00,
2013-09-17 02:15:00,44.1,28.5,30.44,SSE,165,5.4,5.4,54,0.00,NA,NA,-99.99,VWS Version 10.38,2013-09-17 06:15:00,
2013-09-17 02:20:00,43.9,28.3,30.44,SW,217,2.7,2.7,54,0.00,NA,NA,-99.99,VWS Version 10.38,2013-09-17 06:20:00,
2013-09-17 02:25:00,43.7,28.2,30.44,South,184,2.2,2.2,54,0.00,NA,NA,-99.99,VWS Version 10.38,2013-09-17 06:25:00,
2013-09-17 02:30:00,43.7,28.2,30.44,SW,233,0.0,0.0,54,0.00,NA,NA,-99.99,VWS Version 10.38,2013-09-17 06:30:00,
2013-09-17 02:35:00,43.7,28.6,30.44,WSW,249,0.0,0.0,55,0.00,NA,NA,-99.99,VWS Version 10.38,2013-09-17 06:35:00,
2013-09-17 02:40:00,43.5,28.4,30.44,SSW,208,0.0,0.0,55,0.00,NA,NA,-99.99,VWS Version 10.38,2013-09-17 06:40:00,
2013-09-17 02:45:00,43.5,28.4,30.44,ENE,59,0.0,0.0,55,0.00,NA,NA,-99.99,VWS Version 10.38,2013-09-17 06:45:00,
2013-09-17 02:50:00,43.3,28.7,30.44,SSE,153,0.0,0.0,56,0.00,NA,NA,-99.99,VWS Version 10.38,2013-09-17 06:50:00,
2013-09-17 02:55:00,43.2,28.5,30.44,SE,140,0.0,0.0,56,0.00,NA,NA,-99.99,VWS Version 10.38,2013-09-17 06:55:00,
2013-09-17 03:00:00,43.0,28.8,30.44,SSE,160,0.0,0.0,57,0.00,NA,NA,-99.99,VWS Version 10.38,2013-09-17 07:00:00,
2013-09-17 03:05:00,43.0,28.8,30.44,East,84,0.0,0.0,57,0.00,NA,NA,-99.99,VWS Version 10.38,2013-09-17 07:05:00,
2013-09-17 03:10:00,43.0,28.8,30.44,SSW,196,0.0,0.0,57,0.00,NA,NA,-99.99,VWS Version 10.38,2013-09-17 07:10:00,
2013-09-17 03:15:00,43.0,29.2,30.44,SSW,208,3.1,3.1,58,0.00,NA,NA,-99.99,VWS Version 10.38,2013-09-17 07:15:00,
2013-09-17 03:20:00,42.8,29.1,30.44,ENE,62,2.7,2.7,58,0.00,NA,NA,-99.99,VWS Version 10.38,2013-09-17 07:20:00,
2013-09-17 03:25:00,42.6,29.3,30.44,SSW,205,0.0,0.0,59,0.00,NA,NA,-99.99,VWS Version 10.38,2013-09-17 07:25:00,
2013-09-17 03:30:00,42.8,29.5,30.44,SSW,205,0.0,0.0,59,0.00,NA,NA,-99.99,VWS Version 10.38,2013-09-17 07:30:00,
2013-09-17 03:35:00,42.8,29.9,30.44,South,187,0.0,0.0,60,0.00,NA,NA,-99.99,VWS Version 10.38,2013-09-17 07:35:00,
2013-09-17 03:40:00,42.6,29.7,30.44,NE,55,0.0,0.0,60,0.00,NA,NA,-99.99,VWS Version 10.38,2013-09-17 07:40:00,
2013-09-17 03:45:00,42.6,30.1,30.44,NE,55,0.0,0.0,61,0.00,NA,NA,-99.99,VWS Version 10.38,2013-09-17 07:45:00,
2013-09-17 03:50:00,42.6,30.5,30.44,WSW,242,0.0,0.0,62,0.00,NA,NA,-99.99,VWS Version 10.38,2013-09-17 07:50:00,
2013-09-17 03:55:00,42.4,30.8,30.47,SW,227,0.0,0.0,63,0.00,NA,NA,-99.99,VWS Version 10.38,2013-09-17 07:55:00,
2013-09-17 04:00:00,42.3,30.6,30.47,NE,44,0.0,0.0,63,0.00,NA,NA,-99.99,VWS Version 10.38,2013-09-17 08:00:00,
2013-09-17 04:05:00,42.1,30.4,30.47,NE,43,0.0,0.0,63,0.00,NA,NA,-99.99,VWS Version 10.38,2013-09-17 08:05:00,
2013-09-17 04:10:00,42.1,30.8,30.47,SE,132,0.0,0.0,64,0.00,NA,NA,-99.99,VWS Version 10.38,2013-09-17 08:10:00,
2013-09-17 04:15:00,42.1,30.8,30.47,SSW,213,0.0,0.0,64,0.00,NA,NA,-99.99,VWS Version 10.38,2013-09-17 08:15:00,
2013-09-17 04:20:00,41.9,31.0,30.47,SSW,199,0.0,0.0,65,0.00,NA,NA,-99.99,VWS Version 10.38,2013-09-17 08:20:00,
2013-09-17 04:25:00,41.7,30.8,30.47,SSW,199,0.0,0.0,65,0.00,NA,NA,-99.99,VWS Version 10.38,2013-09-17 08:25:00,
2013-09-17 04:30:00,41.7,31.2,30.47,SSW,199,0.0,0.0,66,0.00,NA,NA,-99.99,VWS Version 10.38,2013-09-17 08:30:00,
2013-09-17 04:35:00,41.7,31.2,30.47,SSW,199,0.0,0.0,66,0.00,NA,NA,-99.99,VWS Version 10.38,2013-09-17 08:35:00,
2013-09-17 04:40:00,41.5,31.0,30.47,ESE,103,0.0,0.0,66,0.00,NA,NA,-99.99,VWS Version 10.38,2013-09-17 08:40:00,
2013-09-17 04:45:00,41.2,30.7,30.47,East,96,0.0,0.0,66,0.00,NA,NA,-99.99,VWS Version 10.38,2013-09-17 08:45:00,
2013-09-17 04:50:00,41.2,30.7,30.47,SSE,165,0.0,0.0,66,0.00,NA,NA,-99.99,VWS Version 10.38,2013-09-17 08:50:00,
2013-09-17 04:55:00,41.2,30.7,30.47,SSE,165,0.0,0.0,66,0.00,NA,NA,-99.99,VWS Version 10.38,2013-09-17 08:55:00,
2013-09-17 05:00:00,41.0,30.5,30.47,ENE,71,0.0,0.0,66,0.00,NA,NA,-99.99,VWS Version 10.38,2013-09-17 09:00:00,
2013-09-17 05:05:00,40.6,30.5,30.47,ENE,76,0.0,0.0,67,0.00,NA,NA,-99.99,VWS Version 10.38,2013-09-17 09:05:00,
2013-09-17 05:10:00,40.6,30.5,30.47,ENE,76,0.0,0.0,67,0.00,NA,NA,-99.99,VWS Version 10.38,2013-09-17 09:10:00,
2013-09-17 05:15:00,40.6,30.5,30.47,ENE,76,0.0,0.0,67,0.00,NA,NA,-99.99,VWS Version 10.38,2013-09-17 09:15:00,
2013-09-17 05:20:00,40.5,30.4,30.47,ENE,76,0.0,0.0,67,0.00,NA,NA,-99.99,VWS Version 10.38,2013-09-17 09:20:00,
2013-09-17 05:25:00,40.5,30.4,30.47,ENE,76,0.0,0.0,67,0.00,NA,NA,-99.99,VWS Version 10.38,2013-09-17 09:25:00,
2013-09-17 05:30:00,40.1,30.0,30.47,ENE,76,0.0,0.0,67,0.00,NA,NA,-99.99,VWS Version 10.38,2013-09-17 09:30:00,
2013-09-17 05:35:00,39.9,29.9,30.47,ENE,76,0.0,0.0,67,0.00,NA,NA,-99.99,VWS Version 10.38,2013-09-17 09:35:00,
2013-09-17 05:40:00,39.7,29.7,30.50,ENE,76,0.0,0.0,67,0.00,NA,NA,-99.99,VWS Version 10.38,2013-09-17 09:40:00,
2013-09-17 05:45:00,39.7,30.1,30.50,ENE,76,0.0,0.0,68,0.00,NA,NA,-99.99,VWS Version 10.38,2013-09-17 09:45:00,
2013-09-17 05:50:00,39.7,30.1,30.50,ENE,76,0.0,0.0,68,0.00,NA,NA,-99.99,VWS Version 10.38,2013-09-17 09:50:00,
2013-09-17 05:55:00,39.7,30.4,30.50,ENE,76,0.0,0.0,69,0.00,NA,NA,-99.99,VWS Version 10.38,2013-09-17 09:55:00,
2013-09-17 06:00:00,39.7,30.8,30.50,ENE,76,0.0,0.0,70,0.00,NA,NA,-99.99,VWS Version 10.38,2013-09-17 10:00:00,
2013-09-17 06:05:00,39.7,30.8,30.50,ENE,76,0.0,0.0,70,0.00,NA,NA,-99.99,VWS Version 10.38,2013-09-17 10:05:00,
2013-09-17 06:10:00,39.6,30.6,30.50,ENE,76,0.0,0.0,70,0.00,NA,NA,-99.99,VWS Version 10.38,2013-09-17 10:10:00,
2013-09-17 06:15:00,39.4,30.8,30.50,ENE,76,0.0,0.0,71,0.00,NA,NA,-99.99,VWS Version 10.38,2013-09-17 10:15:00,
2013-09-17 06:20:00,39.4,30.8,30.50,ENE,76,0.0,0.0,71,0.00,NA,NA,-99.99,VWS Version 10.38,2013-09-17 10:20:00,
2013-09-17 06:25:00,39.2,31.0,30.50,ENE,76,0.0,0.0,72,0.00,NA,NA,-99.99,VWS Version 10.38,2013-09-17 10:25:00,
2013-09-17 06:30:00,39.4,31.5,30.50,ENE,76,0.0,0.0,73,0.00,NA,NA,-99.99,VWS Version 10.38,2013-09-17 10:30:00,
2013-09-17 06:35:00,39.4,31.5,30.50,ENE,76,0.0,0.0,73,0.00,NA,NA,-99.99,VWS Version 10.38,2013-09-17 10:35:00,
2013-09-17 06:40:00,39.2,31.3,30.53,ENE,76,0.0,0.0,73,0.00,NA,NA,-99.99,VWS Version 10.38,2013-09-17 10:40:00,
2013-09-17 06:45:00,39.4,31.8,30.53,ENE,76,0.0,0.0,74,0.00,NA,NA,-99.99,VWS Version 10.38,2013-09-17 10:45:00,
2013-09-17 06:50:00,39.6,32.3,30.53,ENE,76,0.0,0.0,75,0.00,NA,NA,-99.99,VWS Version 10.38,2013-09-17 10:50:00,
2013-09-17 06:55:00,39.7,32.5,30.53,ENE,76,0.0,0.0,75,0.00,NA,NA,-99.99,VWS Version 10.38,2013-09-17 10:55:00,
2013-09-17 07:00:00,39.7,32.8,30.53,ENE,76,0.0,0.0,76,0.00,NA,NA,-99.99,VWS Version 10.38,2013-09-17 11:00:00,
2013-09-17 07:05:00,39.9,33.0,30.53,NE,56,0.0,0.0,76,0.00,NA,NA,-99.99,VWS Version 10.38,2013-09-17 11:05:00,
2013-09-17 07:10:00,39.9,33.0,30.53,East,85,0.0,0.0,76,0.00,NA,NA,-99.99,VWS Version 10.38,2013-09-17 11:10:00,
2013-09-17 07:15:00,39.9,33.0,30.53,ESE,121,0.0,0.0,76,0.00,NA,NA,-99.99,VWS Version 10.38,2013-09-17 11:15:00,
2013-09-17 07:20:00,40.1,33.2,30.53,ESE,121,0.0,0.0,76,0.00,NA,NA,-99.99,VWS Version 10.38,2013-09-17 11:20:00,
2013-09-17 07:25:00,40.3,33.7,30.53,SSW,201,0.0,0.0,77,0.00,NA,NA,-99.99,VWS Version 10.38,2013-09-17 11:25:00,
2013-09-17 07:30:00,40.5,33.8,30.53,SSW,201,0.0,0.0,77,0.00,NA,NA,-99.99,VWS Version 10.38,2013-09-17 11:30:00,
2013-09-17 07:35:00,40.6,34.0,30.53,ESE,104,0.0,0.0,77,0.00,NA,NA,-99.99,VWS Version 10.38,2013-09-17 11:35:00,
2013-09-17 07:40:00,41.2,34.5,30.53,SE,129,0.0,0.0,77,0.00,NA,NA,-99.99,VWS Version 10.38,2013-09-17 11:40:00,
2013-09-17 07:45:00,41.5,34.9,30.53,WSW,246,0.0,0.0,77,0.00,NA,NA,-99.99,VWS Version 10.38,2013-09-17 11:45:00,
2013-09-17 07:50:00,41.7,35.0,30.53,WSW,239,0.0,0.0,77,0.00,NA,NA,-99.99,VWS Version 10.38,2013-09-17 11:50:00,
2013-09-17 07:55:00,42.1,35.4,30.53,South,182,0.0,0.0,77,0.00,NA,NA,-99.99,VWS Version 10.38,2013-09-17 11:55:00,
2013-09-17 08:00:00,42.3,35.6,30.53,SE,130,0.0,0.0,77,0.00,NA,NA,-99.99,VWS Version 10.38,2013-09-17 12:00:00,
2013-09-17 08:05:00,42.6,35.9,30.53,SSW,205,0.0,0.0,77,0.00,NA,NA,-99.99,VWS Version 10.38,2013-09-17 12:05:00,
2013-09-17 08:10:00,43.0,36.0,30.53,SSW,212,0.0,0.0,76,0.00,NA,NA,-99.99,VWS Version 10.38,2013-09-17 12:10:00,
2013-09-17 08:15:00,43.3,36.3,30.53,ENE,74,0.0,0.0,76,0.00,NA,NA,-99.99,VWS Version 10.38,2013-09-17 12:15:00,
2013-09-17 08:20:00,43.7,36.6,30.53,SW,236,0.0,0.0,76,0.00,NA,NA,-99.99,VWS Version 10.38,2013-09-17 12:20:00,
2013-09-17 08:25:00,44.1,36.7,30.55,WSW,241,0.0,0.0,75,0.00,NA,NA,-99.99,VWS Version 10.38,2013-09-17 12:25:00,
2013-09-17 08:30:00,44.6,36.8,30.55,SW,230,0.0,0.0,74,0.00,NA,NA,-99.99,VWS Version 10.38,2013-09-17 12:30:00,
2013-09-17 08:35:00,44.8,36.3,30.55,WNW,291,3.6,3.6,72,0.00,NA,NA,-99.99,VWS Version 10.38,2013-09-17 12:35:00,
2013-09-17 08:40:00,45.3,36.1,30.55,East,92,0.0,0.0,70,0.00,NA,NA,-99.99,VWS Version 10.38,2013-09-17 12:40:00,
2013-09-17 08:45:00,45.9,36.3,30.55,SW,234,4.5,4.5,69,0.00,NA,NA,-99.99,VWS Version 10.38,2013-09-17 12:45:00,
2013-09-17 08:50:00,46.4,36.4,30.55,South,182,2.7,2.7,68,0.00,NA,NA,-99.99,VWS Version 10.38,2013-09-17 12:50:00,
2013-09-17 08:55:00,46.8,35.2,30.55,West,277,4.0,4.0,64,0.00,NA,NA,-99.99,VWS Version 10.38,2013-09-17 12:55:00,
2013-09-17 09:00:00,47.3,33.3,30.55,ENE,66,2.7,2.7,58,0.00,NA,NA,-99.99,VWS Version 10.38,2013-09-17 13:00:00,
2013-09-17 09:05:00,47.7,32.8,30.55,WNW,296,2.7,2.7,56,0.00,NA,NA,-99.99,VWS Version 10.38,2013-09-17 13:05:00,
2013-09-17 09:10:00,48.4,32.0,30.55,NW,305,4.0,4.0,53,0.00,NA,NA,-99.99,VWS Version 10.38,2013-09-17 13:10:00,
2013-09-17 09:15:00,48.7,29.9,30.55,WSW,240,0.0,0.0,48,0.00,NA,NA,-99.99,VWS Version 10.38,2013-09-17 13:15:00,
2013-09-17 09:20:00,49.1,28.1,30.55,ESE,115,3.1,3.1,44,0.00,NA,NA,-99.99,VWS Version 10.38,2013-09-17 13:20:00,
2013-09-17 09:25:00,49.6,27.5,30.55,NNE,13,4.0,4.0,42,0.00,NA,NA,-99.99,VWS Version 10.38,2013-09-17 13:25:00,
2013-09-17 09:30:00,50.2,25.6,30.55,ENE,65,2.7,2.7,38,0.00,NA,NA,-99.99,VWS Version 10.38,2013-09-17 13:30:00,
2013-09-17 09:35:00,50.5,25.9,30.55,NE,46,2.2,2.2,38,0.00,NA,NA,-99.99,VWS Version 10.38,2013-09-17 13:35:00,
2013-09-17 09:40:00,51.1,27.0,30.55,West,278,2.7,2.7,39,0.00,NA,NA,-99.99,VWS Version 10.38,2013-09-17 13:40:00,
2013-09-17 09:45:00,51.6,26.9,30.55,SSE,157,2.2,2.2,38,0.00,NA,NA,-99.99,VWS Version 10.38,2013-09-17 13:45:00,
2013-09-17 09:50:00,52.2,26.7,30.55,West,272,0.0,0.0,37,0.00,NA,NA,-99.99,VWS Version 10.38,2013-09-17 13:50:00,
2013-09-17 09:55:00,52.9,26.7,30.55,ESE,122,3.1,3.1,36,0.00,NA,NA,-99.99,VWS Version 10.38,2013-09-17 13:55:00,
2013-09-17 10:00:00,53.2,27.0,30.55,SSW,195,4.9,4.9,36,0.00,NA,NA,-99.99,VWS Version 10.38,2013-09-17 14:00:00,
2013-09-17 10:05:00,53.8,26.8,30.55,SE,135,2.7,2.7,35,0.00,NA,NA,-99.99,VWS Version 10.38,2013-09-17 14:05:00,
2013-09-17 10:10:00,54.3,25.9,30.55,SE,131,5.8,5.8,33,0.00,NA,NA,-99.99,VWS Version 10.38,2013-09-17 14:10:00,
2013-09-17 10:15:00,54.9,27.0,30.55,NNE,24,6.3,6.3,34,0.00,NA,NA,-99.99,VWS Version 10.38,2013-09-17 14:15:00,
2013-09-17 10:20:00,55.6,27.7,30.55,South,181,5.4,5.4,34,0.00,NA,NA,-99.99,VWS Version 10.38,2013-09-17 14:20:00,
2013-09-17 10:25:00,56.1,26.7,30.55,NE,48,2.7,2.7,32,0.00,NA,NA,-99.99,VWS Version 10.38,2013-09-17 14:25:00,
2013-09-17 10:30:00,56.5,26.2,30.55,SE,143,5.8,5.8,31,0.00,NA,NA,-99.99,VWS Version 10.38,2013-09-17 14:30:00,
2013-09-17 10:35:00,56.5,25.4,30.55,WSW,254,2.2,2.2,30,0.00,NA,NA,-99.99,VWS Version 10.38,2013-09-17 14:35:00,
2013-09-17 10:45:00,56.7,24.0,30.55,ESE,110,5.4,5.4,28,0.00,NA,NA,-99.99,VWS Version 10.38,2013-09-17 14:45:00,
2013-09-17 10:50:00,57.2,25.2,30.55,ESE,117,3.6,3.6,29,0.00,NA,NA,-99.99,VWS Version 10.38,2013-09-17 14:50:00,
2013-09-17 10:55:00,57.6,24.7,30.55,ESE,121,3.6,3.6,28,0.00,NA,NA,-99.99,VWS Version 10.38,2013-09-17 14:55:00,
2013-09-17 11:00:00,57.6,23.9,30.55,East,94,5.8,5.8,27,0.00,NA,NA,-99.99,VWS Version 10.38,2013-09-17 15:00:00,
2013-09-17 11:05:00,57.7,24.9,30.55,ENE,63,2.2,2.2,28,0.00,NA,NA,-99.99,VWS Version 10.38,2013-09-17 15:05:00,
2013-09-17 11:10:00,58.3,25.3,30.55,ESE,109,3.1,3.1,28,0.00,NA,NA,-99.99,VWS Version 10.38,2013-09-17 15:10:00,
2013-09-17 11:20:00,58.6,25.6,30.55,West,280,2.7,2.7,28,0.00,NA,NA,-99.99,VWS Version 10.38,2013-09-17 15:20:00,
2013-09-17 11:25:00,58.8,25.8,30.55,ENE,64,3.1,3.1,28,0.00,NA,NA,-99.99,VWS Version 10.38,2013-09-17 15:25:00,
2013-09-17 11:30:00,59.2,25.2,30.55,NE,56,3.6,3.6,27,0.00,NA,NA,-99.99,VWS Version 10.38,2013-09-17 15:30:00,
2013-09-17 11:35:00,59.4,25.4,30.55,WSW,257,3.6,3.6,27,0.00,NA,NA,-99.99,VWS Version 10.38,2013-09-17 15:35:00,
2013-09-17 11:40:00,59.7,25.7,30.55,SW,235,3.1,3.1,27,0.00,NA,NA,-99.99,VWS Version 10.38,2013-09-17 15:40:00,
2013-09-17 11:45:00,59.7,25.7,30.55,ESE,113,2.7,2.7,27,0.00,NA,NA,-99.99,VWS Version 10.38,2013-09-17 15:45:00,
2013-09-17 11:50:00,59.7,24.8,30.55,West,275,5.8,5.8,26,0.00,NA,NA,-99.99,VWS Version 10.38,2013-09-17 15:50:00,
2013-09-17 11:55:00,60.3,25.3,30.55,NNW,339,2.2,2.2,26,0.00,NA,NA,-99.99,VWS Version 10.38,2013-09-17 15:55:00,
2013-09-17 12:00:00,60.1,25.1,30.55,West,279,4.0,4.0,26,0.00,NA,NA,-99.99,VWS Version 10.38,2013-09-17 16:00:00,
2013-09-17 12:05:00,60.3,25.3,30.55,West,265,5.8,5.8,26,0.00,NA,NA,-99.99,VWS Version 10.38,2013-09-17 16:05:00,
2013-09-17 12:10:00,60.1,24.2,30.55,ESE,120,2.7,2.7,25,0.00,NA,NA,-99.99,VWS Version 10.38,2013-09-17 16:10:00,
2013-09-17 12:15:00,60.1,24.2,30.55,ESE,106,2.2,2.2,25,0.00,NA,NA,-99.99,VWS Version 10.38,2013-09-17 16:15:00,
2013-09-17 12:20:00,60.6,26.5,30.55,SSW,200,2.7,2.7,27,0.00,NA,NA,-99.99,VWS Version 10.38,2013-09-17 16:20:00,
2013-09-17 12:25:00,61.0,24.9,30.55,WSW,248,0.0,0.0,25,0.00,NA,NA,-99.99,VWS Version 10.38,2013-09-17 16:25:00,
2013-09-17 12:30:00,61.2,26.0,30.55,SE,140,3.1,3.1,26,0.00,NA,NA,-99.99,VWS Version 10.38,2013-09-17 16:30:00,
2013-09-17 12:35:00,61.2,26.0,30.55,ESE,118,3.6,3.6,26,0.00,NA,NA,-99.99,VWS Version 10.38,2013-09-17 16:35:00,
2013-09-17 12:40:00,61.0,24.9,30.55,ESE,120,3.6,3.6,25,0.00,NA,NA,-99.99,VWS Version 10.38,2013-09-17 16:40:00,
2013-09-17 12:45:00,61.3,25.2,30.55,NW,315,4.9,4.9,25,0.00,NA,NA,-99.99,VWS Version 10.38,2013-09-17 16:45:00,
2013-09-17 12:50:00,61.9,26.6,30.55,NW,324,0.0,0.0,26,0.00,NA,NA,-99.99,VWS Version 10.38,2013-09-17 16:50:00,
2013-09-17 12:55:00,62.2,27.0,30.53,ESE,111,4.9,4.9,26,0.00,NA,NA,-99.99,VWS Version 10.38,2013-09-17 16:55:00,
2013-09-17 13:00:00,62.2,27.0,30.53,East,96,2.7,2.7,26,0.00,NA,NA,-99.99,VWS Version 10.38,2013-09-17 17:00:00,
2013-09-17 13:05:00,62.4,26.2,30.53,NNW,339,2.7,2.7,25,0.00,NA,NA,-99.99,VWS Version 10.38,2013-09-17 17:05:00,
2013-09-17 13:10:00,62.6,27.3,30.53,West,263,0.0,0.0,26,0.00,NA,NA,-99.99,VWS Version 10.38,2013-09-17 17:10:00,
2013-09-17 13:15:00,62.8,26.5,30.53,SSE,152,4.0,4.0,25,0.00,NA,NA,-99.99,VWS Version 10.38,2013-09-17 17:15:00,
2013-09-17 13:20:00,62.8,26.5,30.53,SE,131,2.7,2.7,25,0.00,NA,NA,-99.99,VWS Version 10.38,2013-09-17 17:20:00,
2013-09-17 13:25:00,63.0,26.6,30.53,WNW,285,6.3,6.3,25,0.00,NA,NA,-99.99,VWS Version 10.38,2013-09-17 17:25:00,
2013-09-17 13:30:00,63.0,25.6,30.53,SSE,166,3.1,3.1,24,0.00,NA,NA,-99.99,VWS Version 10.38,2013-09-17 17:30:00,
2013-09-17 13:35:00,63.1,25.8,30.53,WSW,237,2.7,2.7,24,0.00,NA,NA,-99.99,VWS Version 10.38,2013-09-17 17:35:00,
2013-09-17 13:40:00,63.0,25.6,30.53,ESE,121,5.4,5.4,24,0.00,NA,NA,-99.99,VWS Version 10.38,2013-09-17 17:40:00,
2013-09-17 13:45:00,63.3,26.9,30.53,WNW,302,5.4,5.4,25,0.00,NA,NA,-99.99,VWS Version 10.38,2013-09-17 17:45:00,
2013-09-17 13:50:00,63.3,25.9,30.53,West,265,3.1,3.1,24,0.00,NA,NA,-99.99,VWS Version 10.38,2013-09-17 17:50:00,
2013-09-17 13:55:00,63.5,27.1,30.53,West,276,3.6,3.6,25,0.00,NA,NA,-99.99,VWS Version 10.38,2013-09-17 17:55:00,
2013-09-17 14:00:00,63.7,27.2,30.53,WSW,240,4.0,4.0,25,0.00,NA,NA,-99.99,VWS Version 10.38,2013-09-17 18:00:00,
2013-09-17 14:05:00,63.9,27.4,30.53,NE,44,0.0,0.0,25,0.00,NA,NA,-99.99,VWS Version 10.38,2013-09-17 18:05:00,
2013-09-17 14:10:00,64.2,27.7,30.53,ESE,110,4.9,4.9,25,0.00,NA,NA,-99.99,VWS Version 10.38,2013-09-17 18:10:00,
2013-09-17 14:15:00,64.2,26.7,30.53,East,81,2.7,2.7,24,0.00,NA,NA,-99.99,VWS Version 10.38,2013-09-17 18:15:00,
2013-09-17 14:20:00,64.2,26.7,30.53,SSE,150,3.1,3.1,24,0.00,NA,NA,-99.99,VWS Version 10.38,2013-09-17 18:20:00,
2013-09-17 14:25:00,64.0,26.5,30.50,ESE,112,2.7,2.7,24,0.00,NA,NA,-99.99,VWS Version 10.38,2013-09-17 18:25:00,
2013-09-17 14:30:00,64.4,26.9,30.50,East,80,5.8,5.8,24,0.00,NA,NA,-99.99,VWS Version 10.38,2013-09-17 18:30:00,
2013-09-17 14:35:00,64.4,26.9,30.50,ESE,104,0.0,0.0,24,0.00,NA,NA,-99.99,VWS Version 10.38,2013-09-17 18:35:00,
2013-09-17 14:40:00,64.4,26.9,30.50,NNE,18,0.0,0.0,24,0.00,NA,NA,-99.99,VWS Version 10.38,2013-09-17 18:40:00,
2013-09-17 14:45:00,64.6,27.0,30.50,NW,321,4.0,4.0,24,0.00,NA,NA,-99.99,VWS Version 10.38,2013-09-17 18:45:00,
2013-09-17 14:50:00,64.0,26.5,30.50,WNW,285,5.8,5.8,24,0.00,NA,NA,-99.99,VWS Version 10.38,2013-09-17 18:50:00,
2013-09-17 14:55:00,64.0,26.5,30.50,WSW,238,4.0,4.0,24,0.00,NA,NA,-99.99,VWS Version 10.38,2013-09-17 18:55:00,
2013-09-17 15:00:00,64.4,26.9,30.50,West,275,3.6,3.6,24,0.00,NA,NA,-99.99,VWS Version 10.38,2013-09-17 19:00:00,
2013-09-17 15:05:00,64.8,27.2,30.50,West,278,2.7,2.7,24,0.00,NA,NA,-99.99,VWS Version 10.38,2013-09-17 19:05:00,
2013-09-17 15:10:00,64.8,27.2,30.50,NW,316,4.0,4.0,24,0.00,NA,NA,-99.99,VWS Version 10.38,2013-09-17 19:10:00,
2013-09-17 15:15:00,64.8,27.2,30.50,West,273,2.7,2.7,24,0.00,NA,NA,-99.99,VWS Version 10.38,2013-09-17 19:15:00,
2013-09-17 15:20:00,64.9,27.3,30.50,ESE,111,2.7,2.7,24,0.00,NA,NA,-99.99,VWS Version 10.38,2013-09-17 19:20:00,
2013-09-17 15:25:00,64.8,27.2,30.50,East,88,3.1,3.1,24,0.00,NA,NA,-99.99,VWS Version 10.38,2013-09-17 19:25:00,
2013-09-17 15:30:00,65.1,27.5,30.50,West,278,3.6,3.6,24,0.00,NA,NA,-99.99,VWS Version 10.38,2013-09-17 19:30:00,
2013-09-17 15:35:00,65.5,28.8,30.50,West,265,3.1,3.1,25,0.00,NA,NA,-99.99,VWS Version 10.38,2013-09-17 19:35:00,
2013-09-17 15:40:00,65.7,27.9,30.50,SSW,208,5.8,5.8,24,0.00,NA,NA,-99.99,VWS Version 10.38,2013-09-17 19:40:00,
2013-09-17 15:45:00,65.3,27.6,30.50,SSE,159,3.1,3.1,24,0.00,NA,NA,-99.99,VWS Version 10.38,2013-09-17 19:45:00,
2013-09-17 15:50:00,64.6,26.0,30.50,WNW,285,0.0,0.0,23,0.00,NA,NA,-99.99,VWS Version 10.38,2013-09-17 19:50:00,
2013-09-17 15:55:00,64.6,27.0,30.50,East,83,0.0,0.0,24,0.00,NA,NA,-99.99,VWS Version 10.38,2013-09-17 19:55:00,
2013-09-17 16:00:00,64.8,27.2,30.50,WSW,239,2.7,2.7,24,0.00,NA,NA,-99.99,VWS Version 10.38,2013-09-17 20:00:00,
2013-09-17 16:05:00,64.8,27.2,30.50,WNW,292,4.0,4.0,24,0.00,NA,NA,-99.99,VWS Version 10.38,2013-09-17 20:05:00,
2013-09-17 16:10:00,64.9,27.3,30.50,WNW,295,4.0,4.0,24,0.00,NA,NA,-99.99,VWS Version 10.38,2013-09-17 20:10:00,
2013-09-17 16:15:00,64.9,26.3,30.50,ENE,67,2.7,2.7,23,0.00,NA,NA,-99.99,VWS Version 10.38,2013-09-17 20:15:00,
2013-09-17 16:20:00,64.6,26.0,30.50,North,353,2.2,2.2,23,0.00,NA,NA,-99.99,VWS Version 10.38,2013-09-17 20:20:00,
2013-09-17 16:25:00,64.4,25.8,30.50,ESE,123,2.7,2.7,23,0.00,NA,NA,-99.99,VWS Version 10.38,2013-09-17 20:25:00,
2013-09-17 16:30:00,64.2,26.7,30.50,NNE,23,3.1,3.1,24,0.00,NA,NA,-99.99,VWS Version 10.38,2013-09-17 20:30:00,
2013-09-17 16:35:00,64.0,26.5,30.50,NNE,14,2.2,2.2,24,0.00,NA,NA,-99.99,VWS Version 10.38,2013-09-17 20:35:00,
2013-09-17 16:40:00,64.0,26.5,30.47,ESE,121,4.0,4.0,24,0.00,NA,NA,-99.99,VWS Version 10.38,2013-09-17 20:40:00,
2013-09-17 16:45:00,63.9,26.4,30.47,SW,230,0.0,0.0,24,0.00,NA,NA,-99.99,VWS Version 10.38,2013-09-17 20:45:00,
2013-09-17 16:50:00,63.9,26.4,30.47,ESE,118,0.0,0.0,24,0.00,NA,NA,-99.99,VWS Version 10.38,2013-09-17 20:50:00,
2013-09-17 16:55:00,63.9,26.4,30.47,ENE,63,5.4,5.4,24,0.00,NA,NA,-99.99,VWS Version 10.38,2013-09-17 20:55:00,
2013-09-17 17:00:00,63.5,26.1,30.47,East,99,0.0,0.0,24,0.00,NA,NA,-99.99,VWS Version 10.38,2013-09-17 21:00:00,
2013-09-17 17:05:00,63.1,25.8,30.47,West,275,0.0,0.0,24,0.00,NA,NA,-99.99,VWS Version 10.38,2013-09-17 21:05:00,
2013-09-17 17:10:00,63.1,25.8,30.47,NE,56,2.2,2.2,24,0.00,NA,NA,-99.99,VWS Version 10.38,2013-09-17 21:10:00,
2013-09-17 17:15:00,63.0,25.6,30.47,WSW,247,0.0,0.0,24,0.00,NA,NA,-99.99,VWS Version 10.38,2013-09-17 21:15:00,
2013-09-17 17:20:00,63.0,26.6,30.47,East,87,0.0,0.0,25,0.00,NA,NA,-99.99,VWS Version 10.38,2013-09-17 21:20:00,
2013-09-17 17:25:00,62.6,26.3,30.47,NNE,33,0.0,0.0,25,0.00,NA,NA,-99.99,VWS Version 10.38,2013-09-17 21:25:00,
2013-09-17 17:30:00,62.2,26.0,30.47,ENE,63,0.0,0.0,25,0.00,NA,NA,-99.99,VWS Version 10.38,2013-09-17 21:30:00,
2013-09-17 17:35:00,61.9,25.7,30.47,ESE,115,0.0,0.0,25,0.00,NA,NA,-99.99,VWS Version 10.38,2013-09-17 21:35:00,
2013-09-17 17:40:00,61.3,26.2,30.47,East,80,0.0,0.0,26,0.00,NA,NA,-99.99,VWS Version 10.38,2013-09-17 21:40:00,
2013-09-17 17:45:00,61.2,26.9,30.47,East,79,0.0,0.0,27,0.00,NA,NA,-99.99,VWS Version 10.38,2013-09-17 21:45:00,
2013-09-17 17:50:00,60.4,32.7,30.47,East,79,0.0,0.0,35,0.00,NA,NA,-99.99,VWS Version 10.38,2013-09-17 21:50:00,
2013-09-17 17:55:00,59.7,32.7,30.47,East,79,0.0,0.0,36,0.00,NA,NA,-99.99,VWS Version 10.38,2013-09-17 21:55:00,
2013-09-17 18:00:00,58.6,33.1,30.47,East,79,0.0,0.0,38,0.00,NA,NA,-99.99,VWS Version 10.38,2013-09-17 22:00:00,
2013-09-17 18:05:00,57.7,34.2,30.47,East,79,0.0,0.0,41,0.00,NA,NA,-99.99,VWS Version 10.38,2013-09-17 22:05:00,
2013-09-17 18:10:00,57.0,34.8,30.47,East,79,0.0,0.0,43,0.00,NA,NA,-99.99,VWS Version 10.38,2013-09-17 22:10:00,
2013-09-17 18:15:00,56.1,35.6,30.47,East,79,0.0,0.0,46,0.00,NA,NA,-99.99,VWS Version 10.38,2013-09-17 22:15:00,
2013-09-17 18:20:00,55.2,36.4,30.47,East,79,0.0,0.0,49,0.00,NA,NA,-99.99,VWS Version 10.38,2013-09-17 22:20:00,
2013-09-17 18:25:00,54.5,36.8,30.47,East,79,0.0,0.0,51,0.00,NA,NA,-99.99,VWS Version 10.38,2013-09-17 22:25:00,
2013-09-17 18:30:00,53.8,37.5,30.47,East,79,0.0,0.0,54,0.00,NA,NA,-99.99,VWS Version 10.38,2013-09-17 22:30:00,
2013-09-17 18:35:00,53.2,37.5,30.47,East,79,0.0,0.0,55,0.00,NA,NA,-99.99,VWS Version 10.38,2013-09-17 22:35:00,
2013-09-17 18:40:00,52.9,37.6,30.47,East,79,0.0,0.0,56,0.00,NA,NA,-99.99,VWS Version 10.38,2013-09-17 22:40:00,
2013-09-17 18:45:00,52.5,39.0,30.47,East,79,0.0,0.0,60,0.00,NA,NA,-99.99,VWS Version 10.38,2013-09-17 22:45:00,
2013-09-17 18:50:00,52.0,38.5,30.47,East,79,0.0,0.0,60,0.00,NA,NA,-99.99,VWS Version 10.38,2013-09-17 22:50:00,
2013-09-17 18:55:00,51.8,37.9,30.47,East,79,0.0,0.0,59,0.00,NA,NA,-99.99,VWS Version 10.38,2013-09-17 22:55:00,
2013-09-17 19:00:00,51.4,37.6,30.47,East,79,0.0,0.0,59,0.00,NA,NA,-99.99,VWS Version 10.38,2013-09-17 23:00:00,
2013-09-17 19:05:00,51.3,37.4,30.47,East,79,0.0,0.0,59,0.00,NA,NA,-99.99,VWS Version 10.38,2013-09-17 23:05:00,
2013-09-17 19:10:00,50.9,37.1,30.47,East,79,0.0,0.0,59,0.00,NA,NA,-99.99,VWS Version 10.38,2013-09-17 23:10:00,
2013-09-17 19:15:00,50.5,36.8,30.47,East,79,0.0,0.0,59,0.00,NA,NA,-99.99,VWS Version 10.38,2013-09-17 23:15:00,
2013-09-17 19:25:00,49.8,37.3,30.47,East,79,0.0,0.0,62,0.00,NA,NA,-99.99,VWS Version 10.38,2013-09-17 23:25:00,
2013-09-17 19:30:00,49.5,37.0,30.47,East,79,0.0,0.0,62,0.00,NA,NA,-99.99,VWS Version 10.38,2013-09-17 23:30:00,
2013-09-17 19:35:00,49.3,36.8,30.47,East,79,0.0,0.0,62,0.00,NA,NA,-99.99,VWS Version 10.38,2013-09-17 23:35:00,
2013-09-17 19:40:00,49.1,37.1,30.47,East,79,0.0,0.0,63,0.00,NA,NA,-99.99,VWS Version 10.38,2013-09-17 23:40:00,
2013-09-17 19:45:00,48.9,36.9,30.47,East,79,0.0,0.0,63,0.00,NA,NA,-99.99,VWS Version 10.38,2013-09-17 23:45:00,
2013-09-17 19:50:00,48.7,36.7,30.47,East,79,0.0,0.0,63,0.00,NA,NA,-99.99,VWS Version 10.38,2013-09-17 23:50:00,
2013-09-17 19:55:00,48.4,36.4,30.47,East,79,0.0,0.0,63,0.00,NA,NA,-99.99,VWS Version 10.38,2013-09-17 23:55:00,
2013-09-17 20:00:00,48.2,36.6,30.50,East,79,0.0,0.0,64,0.00,NA,NA,-99.99,VWS Version 10.38,2013-09-18 00:00:00,
2013-09-17 20:05:00,47.8,37.4,30.50,East,79,0.0,0.0,67,0.00,NA,NA,-99.99,VWS Version 10.38,2013-09-18 00:05:00,
2013-09-17 20:10:00,47.5,37.8,30.50,East,79,0.0,0.0,69,0.00,NA,NA,-99.99,VWS Version 10.38,2013-09-18 00:10:00,
2013-09-17 20:15:00,47.1,37.8,30.50,East,79,0.0,0.0,70,0.00,NA,NA,-99.99,VWS Version 10.38,2013-09-18 00:15:00,
2013-09-17 20:20:00,46.9,38.0,30.50,East,79,0.0,0.0,71,0.00,NA,NA,-99.99,VWS Version 10.38,2013-09-18 00:20:00,
2013-09-17 20:25:00,46.8,38.2,30.50,East,79,0.0,0.0,72,0.00,NA,NA,-99.99,VWS Version 10.38,2013-09-18 00:25:00,
2013-09-17 20:30:00,46.6,38.0,30.50,East,79,0.0,0.0,72,0.00,NA,NA,-99.99,VWS Version 10.38,2013-09-18 00:30:00,
2013-09-17 20:35:00,46.6,38.0,30.50,East,79,0.0,0.0,72,0.00,NA,NA,-99.99,VWS Version 10.38,2013-09-18 00:35:00,
2013-09-17 20:40:00,46.4,37.9,30.50,East,79,0.0,0.0,72,0.00,NA,NA,-99.99,VWS Version 10.38,2013-09-18 00:40:00,
2013-09-17 20:45:00,46.2,38.1,30.50,East,79,0.0,0.0,73,0.00,NA,NA,-99.99,VWS Version 10.38,2013-09-18 00:45:00,
2013-09-17 20:50:00,46.0,37.9,30.50,East,79,0.0,0.0,73,0.00,NA,NA,-99.99,VWS Version 10.38,2013-09-18 00:50:00,
2013-09-17 20:55:00,46.0,37.9,30.50,East,79,0.0,0.0,73,0.00,NA,NA,-99.99,VWS Version 10.38,2013-09-18 00:55:00,
2013-09-17 21:00:00,45.9,37.7,30.50,East,79,0.0,0.0,73,0.00,NA,NA,-99.99,VWS Version 10.38,2013-09-18 01:00:00,
2013-09-17 21:05:00,45.7,37.5,30.50,East,79,0.0,0.0,73,0.00,NA,NA,-99.99,VWS Version 10.38,2013-09-18 01:05:00,
2013-09-17 21:10:00,45.5,37.7,30.50,East,79,0.0,0.0,74,0.00,NA,NA,-99.99,VWS Version 10.38,2013-09-18 01:10:00,
2013-09-17 21:15:00,45.3,37.5,30.50,East,79,0.0,0.0,74,0.00,NA,NA,-99.99,VWS Version 10.38,2013-09-18 01:15:00,
2013-09-17 21:20:00,45.1,37.7,30.50,East,79,0.0,0.0,75,0.00,NA,NA,-99.99,VWS Version 10.38,2013-09-18 01:20:00,
2013-09-17 21:25:00,44.8,37.3,30.50,East,79,0.0,0.0,75,0.00,NA,NA,-99.99,VWS Version 10.38,2013-09-18 01:25:00,
2013-09-17 21:30:00,44.6,37.5,30.50,East,79,0.0,0.0,76,0.00,NA,NA,-99.99,VWS Version 10.38,2013-09-18 01:30:00,
2013-09-17 21:35:00,44.4,37.7,30.50,East,79,0.0,0.0,77,0.00,NA,NA,-99.99,VWS Version 10.38,2013-09-18 01:35:00,
2013-09-17 21:40:00,44.6,37.5,30.50,East,79,0.0,0.0,76,0.00,NA,NA,-99.99,VWS Version 10.38,2013-09-18 01:40:00,
2013-09-17 21:45:00,44.6,37.5,30.50,East,79,0.0,0.0,76,0.00,NA,NA,-99.99,VWS Version 10.38,2013-09-18 01:45:00,
2013-09-17 21:50:00,44.6,37.5,30.50,East,79,0.0,0.0,76,0.00,NA,NA,-99.99,VWS Version 10.38,2013-09-18 01:50:00,
2013-09-17 21:55:00,44.1,37.3,30.50,East,79,0.0,0.0,77,0.00,NA,NA,-99.99,VWS Version 10.38,2013-09-18 01:55:00,
2013-09-17 22:00:00,44.1,37.3,30.50,East,79,0.0,0.0,77,0.00,NA,NA,-99.99,VWS Version 10.38,2013-09-18 02:00:00,
2013-09-17 22:05:00,43.9,37.2,30.50,East,79,0.0,0.0,77,0.00,NA,NA,-99.99,VWS Version 10.38,2013-09-18 02:05:00,
2013-09-17 22:10:00,43.7,37.0,30.50,East,79,0.0,0.0,77,0.00,NA,NA,-99.99,VWS Version 10.38,2013-09-18 02:10:00,
2013-09-17 22:15:00,43.7,37.0,30.50,East,79,0.0,0.0,77,0.00,NA,NA,-99.99,VWS Version 10.38,2013-09-18 02:15:00,
2013-09-17 22:20:00,43.3,37.0,30.50,East,79,0.0,0.0,78,0.00,NA,NA,-99.99,VWS Version 10.38,2013-09-18 02:20:00,
2013-09-17 22:25:00,43.2,36.8,30.50,East,79,0.0,0.0,78,0.00,NA,NA,-99.99,VWS Version 10.38,2013-09-18 02:25:00,
2013-09-17 22:30:00,43.2,36.8,30.50,East,79,0.0,0.0,78,0.00,NA,NA,-99.99,VWS Version 10.38,2013-09-18 02:30:00,
2013-09-17 22:35:00,43.0,36.9,30.50,East,79,0.0,0.0,79,0.00,NA,NA,-99.99,VWS Version 10.38,2013-09-18 02:35:00,
2013-09-17 22:40:00,42.8,36.8,30.50,East,79,0.0,0.0,79,0.00,NA,NA,-99.99,VWS Version 10.38,2013-09-18 02:40:00,
2013-09-17 22:45:00,42.8,37.1,30.50,East,79,0.0,0.0,80,0.00,NA,NA,-99.99,VWS Version 10.38,2013-09-18 02:45:00,
2013-09-17 22:50:00,42.6,37.2,30.50,East,79,0.0,0.0,81,0.00,NA,NA,-99.99,VWS Version 10.38,2013-09-18 02:50:00,
2013-09-17 22:55:00,42.8,37.4,30.50,East,79,0.0,0.0,81,0.00,NA,NA,-99.99,VWS Version 10.38,2013-09-18 02:55:00,
2013-09-17 23:00:00,43.0,37.6,30.50,East,79,0.0,0.0,81,0.00,NA,NA,-99.99,VWS Version 10.38,2013-09-18 03:00:00,
2013-09-17 23:05:00,42.8,37.4,30.50,East,79,0.0,0.0,81,0.00,NA,NA,-99.99,VWS Version 10.38,2013-09-18 03:05:00,
2013-09-17 23:10:00,42.6,37.2,30.50,East,79,0.0,0.0,81,0.00,NA,NA,-99.99,VWS Version 10.38,2013-09-18 03:10:00,
2013-09-17 23:15:00,42.4,37.0,30.50,East,79,0.0,0.0,81,0.00,NA,NA,-99.99,VWS Version 10.38,2013-09-18 03:15:00,
2013-09-17 23:20:00,42.4,37.0,30.50,East,79,0.0,0.0,81,0.00,NA,NA,-99.99,VWS Version 10.38,2013-09-18 03:20:00,
2013-09-17 23:25:00,42.4,37.0,30.50,East,79,0.0,0.0,81,0.00,NA,NA,-99.99,VWS Version 10.38,2013-09-18 03:25:00,
2013-09-17 23:30:00,42.3,37.2,30.50,East,79,0.0,0.0,82,0.00,NA,NA,-99.99,VWS Version 10.38,2013-09-18 03:30:00,
2013-09-17 23:35:00,42.1,37.0,30.50,East,79,0.0,0.0,82,0.00,NA,NA,-99.99,VWS Version 10.38,2013-09-18 03:35:00,
2013-09-17 23:40:00,42.1,37.0,30.50,East,79,0.0,0.0,82,0.00,NA,NA,-99.99,VWS Version 10.38,2013-09-18 03:40:00,
2013-09-17 23:45:00,42.1,37.0,30.50,East,79,0.0,0.0,82,0.00,NA,NA,-99.99,VWS Version 10.38,2013-09-18 03:45:00,
2013-09-17 23:50:00,42.3,37.5,30.50,East,79,0.0,0.0,83,0.00,NA,NA,-99.99,VWS Version 10.38,2013-09-18 03:50:00,
2013-09-17 23:55:00,42.3,37.2,30.50,East,79,0.0,0.0,82,0.00,NA,NA,-99.99,VWS Version 10.38,2013-09-18 03:55:00,